TimePDT,TemperatureF,Dew PointF,Humidity,Sea Level PressureIn,VisibilityMPH,Wind Direction,Wind SpeedMPH,Gust SpeedMPH,PrecipitationIn,Events,Conditions,WindDirDegrees,DateUTC
12:56 AM,50.0,24.1,36,30.07,10.0,Calm,Calm,-,N/A,,Clear,0,2013-04-24 07:56:00
1:56 AM,46.9,21.9,37,30.09,10.0,ENE,5.8,-,N/A,,Clear,60,2013-04-24 08:56:00
2:56 AM,44.1,19.9,38,30.09,10.0,NE,4.6,-,N/A,,Clear,40,2013-04-24 09:56:00
3:56 AM,41.0,21.0,45,30.10,10.0,Calm,Calm,-,N/A,,Clear,0,2013-04-24 10:56:00
4:56 AM,35.1,21.9,59,30.12,10.0,Calm,Calm,-,N/A,,Clear,0,2013-04-24 11:56:00
5:56 AM,32.0,21.9,66,30.13,10.0,Calm,Calm,-,N/A,,Clear,0,2013-04-24 12:56:00
6:56 AM,33.1,21.0,61,30.13,10.0,Calm,Calm,-,N/A,,Clear,0,2013-04-24 13:56:00
7:56 AM,44.1,24.1,45,30.13,10.0,Calm,Calm,-,N/A,,Clear,0,2013-04-24 14:56:00
8:56 AM,51.1,21.9,32,30.13,10.0,Calm,Calm,-,N/A,,Clear,0,2013-04-24 15:56:00
9:56 AM,57.0,21.0,25,30.11,10.0,Calm,Calm,-,N/A,,Clear,0,2013-04-24 16:56:00
10:56 AM,63.0,23.0,22,30.09,10.0,Calm,Calm,-,N/A,,Clear,0,2013-04-24 17:56:00
11:56 AM,68.0,21.0,17,30.07,10.0,Variable,3.5,-,N/A,,Clear,0,2013-04-24 18:56:00
12:56 PM,70.0,19.9,15,30.04,10.0,Variable,3.5,-,N/A,,Clear,0,2013-04-24 19:56:00
1:56 PM,73.0,18.0,12,30.03,10.0,Variable,3.5,-,N/A,,Clear,0,2013-04-24 20:56:00
2:56 PM,73.9,19.9,13,30.02,10.0,East,11.5,16.1,N/A,,Clear,90,2013-04-24 21:56:00
3:56 PM,73.9,18.0,12,30.00,10.0,Calm,Calm,-,N/A,,Clear,0,2013-04-24 22:56:00
4:56 PM,72.0,19.0,13,30.00,10.0,Variable,3.5,-,N/A,,Clear,0,2013-04-24 23:56:00
5:56 PM,71.1,21.9,16,30.00,10.0,Variable,3.5,16.1,N/A,,Clear,0,2013-04-25 00:56:00
6:56 PM,69.1,24.1,18,30.00,10.0,Calm,Calm,-,N/A,,Clear,0,2013-04-25 01:56:00
7:56 PM,59.0,27.0,29,30.01,10.0,Calm,Calm,-,N/A,,Clear,0,2013-04-25 02:56:00
8:56 PM,52.0,28.9,41,30.03,10.0,Calm,Calm,-,N/A,,Clear,0,2013-04-25 03:56:00
9:56 PM,46.9,27.0,46,30.04,10.0,Calm,Calm,-,N/A,,Clear,0,2013-04-25 04:56:00
10:56 PM,45.0,25.0,46,30.03,10.0,Calm,Calm,-,N/A,,Clear,0,2013-04-25 05:56:00
11:56 PM,41.0,24.1,51,30.04,10.0,Calm,Calm,-,N/A,,Clear,0,2013-04-25 06:56:00